This is the latest recevied weather packets stored in our database for station/object GCEMA. If no packets are shown the sender has not sent any weather packets the latest 10 day(s).
| Time | Temp. | Humidity | Pressure | Rain* | Wind** | Luminosity | Snow |
|---|---|---|---|---|---|---|---|
| 1777971116 | 18.33° C | - | 1006.3 hPa | 0 mm | 0 m/s | - | - |
| 1777970938 | 18.33° C | - | 1006.3 hPa | 0 mm | 0 m/s | - | - |
| 1777970755 | 18.33° C | - | 1006.2 hPa | 0 mm | 0 m/s | - | - |
| 1777970576 | 18.33° C | - | 1006.1 hPa | 0 mm | 0 m/s | - | - |
| 1777970396 | 18.89° C | - | 1006.2 hPa | 0 mm | 0 m/s | - | - |
| 1777970216 | 18.89° C | - | 1006.3 hPa | 0 mm | 0 m/s | - | - |
| 1777970037 | 18.89° C | - | 1006.3 hPa | 0 mm | 0 m/s | - | - |
| 1777969675 | 18.33° C | - | 1006.2 hPa | 0 mm | 0 m/s | - | - |
| 1777969498 | 18.33° C | - | 1006.3 hPa | 0 mm | 0 m/s | - | - |
| 1777969317 | 18.33° C | - | 1006.3 hPa | 0 mm | 0 m/s | - | - |
| 1777969137 | 18.33° C | - | 1006.2 hPa | 0 mm | 0 m/s | - | - |
| 1777968954 | 18.33° C | - | 1006.1 hPa | 0 mm | 0 m/s | - | - |
| 1777968775 | 18.33° C | - | 1006.2 hPa | 0 mm | 0 m/s | - | - |
| 1777968598 | 18.33° C | - | 1006.2 hPa | 0 mm | 0 m/s | - | - |
| 1777968416 | 18.33° C | - | 1006.4 hPa | 0 mm | 0 m/s | - | - |
| 1777968237 | 18.33° C | - | 1006.6 hPa | 0 mm | 0 m/s | - | - |
| 1777968054 | 17.22° C | - | 1006.7 hPa | 0 mm | 0 m/s | - | - |
| 1777967919 | 17.78° C | - | 1006.7 hPa | 0 mm | 0 m/s | - | - |
| 1777967875 | 17.78° C | - | 1006.7 hPa | 0 mm | 0 m/s | - | - |
| 1777967696 | 17.22° C | - | 1006.7 hPa | 0 mm | 0 m/s | - | - |
| 1777967516 | 16.67° C | - | 1006.7 hPa | 0 mm | 0 m/s | - | - |
| 1777967337 | 17.78° C | - | 1006.2 hPa | 0 mm | 0 m/s | - | - |
| 1777967156 | 18.33° C | - | 1005.8 hPa | 0 mm | 0 m/s | - | - |
| 1777966974 | 17.78° C | - | 1005.7 hPa | 0 mm | 0 m/s | - | - |
| 1777966796 | 17.78° C | - | 1005.7 hPa | 0 mm | 0 m/s | - | - |
* Rain latest hour (hover to see other rain measurements)
** Current wind speed in m/s (hover to see current wind gust speed)